[[{"header":{"parameterUnit":"m.s-1","parameterCategory":1,"la1":30.2991,"la2":30.254,"lo1":-89.0895,"lo2":-89.0444,"dy":0.0017,"dx":0.0017,"nx":28,"ny":28,"refTime":"2025-08-14T03:00:00:Z","depth":0,"parameterNumber":2,"parameterNumberName":"U-component_of_WINDS"},"data":[0,0,0,0,0,0,0,0,0,0,0,0,0,0,0,0,0,0,0,0,0,0,0,0,0,0,0,0,0,0,0,0,0,0,0,0,0,0,0,0,0,0,0,0,0,0,0,0,0,0,0,0,0,0,0,0,0,0,0.4189,0.4189,0,0.4179,0.4179,0.4179,0.4119,0.4117,0.4116,0.4114,0.4108,0.4109,0.411,0,0,0,0,0,0,0,0,0,0,0,0,0,0.4159,0.4159,0.4189,0.4189,0.4189,0.4179,0.4179,0.4179,0.4119,0.4117,0.4115,0.4114,0.4107,0.4109,0.411,0,0,0,0,0,0,0,0,0,0,0,0,0,0.4163,0.416,0.4189,0.4158,0.4155,0.4179,0.4179,0.4179,0.4119,0.4117,0.4115,0.4113,0.4107,0.4109,0.411,0.4165,0,0,0.4116,0.4116,0,0,0,0,0,0,0,0,0.4162,0.4164,0.4162,0.416,0.4157,0.4148,0.4165,0.4174,0.412,0.4133,0.4114,0.4112,0.4123,0.4123,0.4126,0.4165,0.4164,0.4116,0.4117,0.4118,0.4118,0,0,0,0,0,0,0,0.4162,0.4164,0.4185,0.4162,0.4159,0.4145,0.4143,0.4167,0.4141,0.4132,0.4127,0.4127,0.4121,0.4125,0.4126,0.4164,0.4116,0.4117,0.4118,0.4119,0.4243,0.4245,0,0,0,0,0,0,0.4166,0.4164,0.4185,0.4185,0.4154,0.4147,0.4145,0.4153,0.414,0.4136,0.4128,0.4124,0.4123,0.4124,0.4125,0.4186,0.4118,0.4119,0.412,0.4241,0.4244,0.4246,0,0,0,0,0,0,0.4166,0.4168,0.4186,0.4173,0.4174,0.415,0.4159,0.4154,0.4157,0.4138,0.4133,0.4137,0.4121,0.4123,0.4154,0.4185,0.412,0.4122,0.4238,0.4242,0.4245,0.4309,0,0,0,0,0,0,0.4165,0.4169,0.4189,0.4174,0.4175,0.4215,0.4161,0.4155,0.416,0.4154,0.4144,0.4141,0.412,0.4152,0.4156,0.4186,0.4123,0.4236,0.424,0.4244,0.4304,0.4314,0.4322,0,0,0,0,0,0.4164,0.4209,0.419,0.4193,0.42,0.4217,0.4218,0.4191,0.4163,0.4183,0.417,0.4141,0.4181,0.4156,0.416,0.4191,0.4234,0.4239,0.4244,0.43,0.4312,0.4322,0,0,0,0,0,0,0.423,0.4206,0.4186,0.4227,0.4224,0.4207,0.4231,0.4206,0.4212,0.4206,0.4174,0.4173,0.4209,0.4203,0.4176,0.4241,0.4202,0.4208,0.4243,0.4255,0.4264,0.4264,0.4125,0,0,0,0,0,0.4249,0.4264,0.4243,0.4281,0.4281,0.4256,0.4263,0.4243,0.4239,0.4238,0.4227,0.4226,0.4237,0.4246,0.4256,0.4303,0.4299,0.4326,0.4335,0.4343,0.4348,0.4369,0.438,0.4263,0.4263,0.4263,0,0,0.4289,0.4278,0.429,0.4294,0.429,0.4306,0.4256,0.4276,0.4287,0.4242,0.4269,0.4262,0.4258,0.4296,0.4313,0.4293,0.438,0.4349,0.4356,0.4357,0.4376,0.4387,0.4397,0.4266,0.4266,0.4265,0,0,0.437,0.4364,0.4393,0.4389,0.4382,0.4365,0.4372,0.4358,0.435,0.4378,0.4342,0.4356,0.4378,0.4376,0.4377,0.4454,0.4427,0.4459,0.4507,0.4528,0.4537,0.4545,0.457,0.458,0.4464,0.4464,0.4464,0,0.4421,0.4443,0.4412,0.4433,0.4435,0.4393,0.4422,0.442,0.4417,0.442,0.4397,0.4421,0.4416,0.4452,0.447,0.4474,0.448,0.4459,0.4538,0.4546,0.4553,0.4576,0.4586,0.4468,0.4468,0.4467,0.4467,0,0.4504,0.452,0.4545,0.454,0.4546,0.4571,0.4544,0.4554,0.4533,0.4518,0.4545,0.4537,0.4543,0.455,0.4531,0.4583,0.457,0.4544,0.4503,0.4568,0.4589,0.4598,0.4473,0.4472,0.4471,0.447,0,0,0.4626,0.4603,0.4612,0.4608,0.4596,0.4608,0.4631,0.4635,0.4642,0.4642,0.4659,0.4678,0.4652,0.4654,0.4634,0.4653,0.471,0.4623,0.4622,0.4637,0.4764,0.4782,0.4793,0.4693,0.4694,0.4696,0.4763,0,0.4701,0.4737,0.4709,0.4751,0.4763,0.4722,0.4742,0.4736,0.4723,0.4732,0.4718,0.473,0.4697,0.4697,0.4714,0.47,0.4735,0.4695,0.4708,0.4708,0.4708,0.4805,0.4825,0.4889,0.4771,0.4773,0.4774,0,0.4793,0.4794,0.4835,0.4817,0.4822,0.484,0.484,0.485,0.4843,0.4831,0.4832,0.4806,0.4827,0.4789,0.4816,0.4789,0.4793,0.4786,0.4788,0.4787,0.4744,0.4804,0.4909,0.4918,0.4787,0.4786,0.4785,0,0.4874,0.4886,0.4911,0.491,0.4891,0.4904,0.4897,0.4887,0.4891,0.4891,0.4893,0.4897,0.4899,0.4902,0.4878,0.4852,0.4907,0.4867,0.4897,0.4898,0.491,0.4909,0.5015,0.4916,0.4916,0.4916,0.4915,0,0.4959,0.4986,0.4947,0.4963,0.4991,0.4959,0.4988,0.4977,0.4968,0.498,0.4946,0.4959,0.4927,0.4936,0.4917,0.4941,0.4943,0.4934,0.4928,0.4936,0.4936,0.4936,0.493,0.4918,0.4918,0.4917,0.4917,0,0.5054,0.503,0.5054,0.5033,0.5029,0.505,0.5032,0.5045,0.5029,0.5045,0.5047,0.5022,0.5031,0.5007,0.5013,0.5,0.5034,0.5022,0.5035,0.5031,0.5061,0.5058,0.5169,0.5181,0.5077,0.5078,0.5079,0,0.5109,0.5128,0.5108,0.5113,0.5107,0.5116,0.5118,0.5088,0.5092,0.5084,0.5098,0.5103,0.5106,0.5121,0.5104,0.5108,0.5094,0.5133,0.5095,0.5101,0.5092,0.509,0.5091,0.514,0.5142,0.5143,0.5144,0,0.5208,0.5194,0.5198,0.5197,0.52,0.5199,0.5195,0.5201,0.5169,0.5175,0.5182,0.5184,0.5188,0.5194,0.5193,0.5186,0.5159,0.5156,0.5163,0.5169,0.5175,0.517,0.5054,0.5153,0.5152,0.5152,0.5151,0.5151,0.5282,0.5296,0.5283,0.5288,0.5281,0.5278,0.5288,0.5273,0.5278,0.5278,0.526,0.527,0.5261,0.5257,0.5252,0.526,0.5242,0.5253,0.5255,0.5257,0.5261,0.5176,0.526,0.526,0.5259,0.5259,0.5259,0,0.5376,0.5366,0.5371,0.5365,0.5369,0.5342,0.5336,0.5341,0.535,0.5343,0.5345,0.5353,0.5357,0.5339,0.5341,0.535,0.5338,0.5352,0.5349,0.5348,0.5278,0.5271,0.5361,0.5361,0.5361,0.5361,0.5361,0.5361,0.5426,0.5446,0.5431,0.5447,0.5437,0.5445,0.5444,0.544,0.5434,0.5443,0.5446,0.5434,0.5422,0.5422,0.5424,0.5419,0.542,0.5438,0.5428,0.5363,0.5353,0.5343,0.5336,0.5439,0.5439,0.5496,0.5497,0.5497]},{"header":{"parameterUnit":"m.s-1","parameterCategory":1,"la1":30.2991,"la2":30.254,"lo1":-89.0895,"lo2":-89.0444,"dy":0.0017,"dx":0.0017,"nx":28,"ny":28,"refTime":"2025-08-14T03:00:00:Z","depth":0,"parameterNumber":3,"parameterNumberName":"V-component_of_WINDS"},"data":[0,0,0,0,0,0,0,0,0,0,0,0,0,0,0,0,0,0,0,0,0,0,0,0,0,0,0,0,0,0,0,0,0,0,0,0,0,0,0,0,0,0,0,0,0,0,0,0,0,0,0,0,0,0,0,0,0,0,3.7381,3.738,0,3.7309,3.7308,3.7307,3.72,3.7198,3.7197,3.7195,3.7121,3.7121,3.712,0,0,0,0,0,0,0,0,0,0,0,0,0,3.7425,3.7425,3.7381,3.738,3.7379,3.7309,3.7308,3.7307,3.7201,3.7198,3.7196,3.7194,3.7121,3.7121,3.712,0,0,0,0,0,0,0,0,0,0,0,0,0,3.7385,3.7425,3.7381,3.7318,3.7311,3.7309,3.7308,3.7306,3.7201,3.7198,3.7196,3.7193,3.7121,3.7121,3.712,3.7174,0,0,3.7119,3.7119,0,0,0,0,0,0,0,0,3.7387,3.7383,3.7328,3.7322,3.7315,3.7261,3.7296,3.7262,3.7202,3.7243,3.7195,3.7192,3.717,3.7165,3.7158,3.717,3.7167,3.7119,3.7119,3.7119,3.7119,0,0,0,0,0,0,0,3.739,3.7386,3.7352,3.7327,3.7319,3.7292,3.7283,3.7289,3.7223,3.7239,3.7231,3.7224,3.7165,3.7158,3.7155,3.7166,3.7119,3.7119,3.7119,3.7118,3.7216,3.7219,0,0,0,0,0,0,3.7403,3.7389,3.7355,3.735,3.7345,3.7294,3.7284,3.7281,3.7223,3.7211,3.7227,3.7219,3.716,3.7156,3.7152,3.721,3.7119,3.7118,3.7118,3.7213,3.7216,3.722,0,0,0,0,0,0,3.7404,3.7401,3.7358,3.7367,3.736,3.7296,3.7294,3.7281,3.7274,3.7213,3.7201,3.7232,3.7158,3.7153,3.7168,3.7206,3.7118,3.7118,3.721,3.7214,3.7218,3.7327,0,0,0,0,0,0,3.7406,3.7402,3.7423,3.7369,3.736,3.7377,3.7296,3.7282,3.7273,3.7263,3.7214,3.7204,3.7155,3.717,3.7168,3.7204,3.7118,3.7206,3.7212,3.7217,3.7319,3.7334,3.7346,0,0,0,0,0,3.7408,3.7457,3.7424,3.7421,3.7384,3.7379,3.7374,3.7317,3.7277,3.7296,3.7257,3.7205,3.7201,3.7172,3.717,3.7206,3.7204,3.721,3.7216,3.7313,3.7331,3.7346,0,0,0,0,0,0,3.7518,3.7449,3.7412,3.7445,3.7419,3.7361,3.7385,3.7338,3.7323,3.7315,3.7244,3.7234,3.7259,3.7233,3.7202,3.7252,3.7194,3.7201,3.7269,3.7285,3.7299,3.7305,3.7117,0,0,0,0,0,3.7545,3.7547,3.7487,3.7522,3.751,3.745,3.7445,3.7404,3.7374,3.7362,3.7324,3.7296,3.7288,3.7285,3.7275,3.7314,3.7301,3.7337,3.735,3.7362,3.7369,3.7385,3.74,3.724,3.724,3.724,0,0,3.7604,3.7566,3.7572,3.7543,3.7517,3.752,3.7441,3.7448,3.7449,3.7363,3.7376,3.7346,3.7311,3.7338,3.7348,3.7318,3.7409,3.737,3.7379,3.738,3.7393,3.7408,3.7422,3.7244,3.7244,3.7243,0,0,3.7711,3.7683,3.7708,3.7684,3.7646,3.7605,3.7611,3.756,3.7537,3.7548,3.7482,3.7482,3.747,3.7447,3.7434,3.7528,3.7479,3.7526,3.7597,3.7614,3.7627,3.7638,3.7671,3.7684,3.7533,3.7533,3.7533,0,3.7789,3.7791,3.7727,3.7737,3.7726,3.7646,3.767,3.7649,3.7611,3.7604,3.757,3.7551,3.7522,3.7542,3.7565,3.7556,3.756,3.7533,3.763,3.7641,3.765,3.768,3.7693,3.7539,3.7538,3.7537,3.7537,0,3.7887,3.7889,3.7914,3.7877,3.7868,3.7885,3.7823,3.7821,3.7779,3.7741,3.7752,3.7713,3.7692,3.7693,3.7653,3.7706,3.7688,3.7643,3.7584,3.7672,3.7699,3.7711,3.7547,3.7545,3.7543,3.7542,0,0,3.8065,3.799,3.8001,3.7982,3.7932,3.7933,3.7945,3.7924,3.7923,3.7897,3.7905,3.7895,3.7852,3.7837,3.7792,3.7807,3.7883,3.7759,3.7757,3.7784,3.7938,3.7973,3.7988,3.7849,3.7851,3.7852,3.7941,0,3.8163,3.8181,3.8123,3.8155,3.8155,3.8077,3.8087,3.8058,3.8021,3.8015,3.7974,3.7968,3.7912,3.7902,3.7913,3.7872,3.7913,3.7864,3.7855,3.7856,3.7868,3.8002,3.804,3.8125,3.7951,3.7953,3.7954,0,3.8281,3.8261,3.8293,3.8239,3.8237,3.8248,3.8222,3.8217,3.8181,3.8153,3.8134,3.8082,3.8088,3.8029,3.8036,3.8004,3.7996,3.7975,3.7977,3.7975,3.7912,3.8005,3.8151,3.8165,3.7971,3.7969,3.7968,0,3.8408,3.8388,3.8404,3.8391,3.8328,3.8337,3.8311,3.8272,3.8262,3.8239,3.8231,3.821,3.8198,3.8182,3.8124,3.8087,3.8137,3.8074,3.8114,3.8115,3.813,3.813,3.8278,3.8123,3.8123,3.8123,3.8123,0,3.8524,3.8547,3.846,3.8471,3.8493,3.8424,3.8447,3.8414,3.8378,3.8379,3.831,3.8312,3.8235,3.8228,3.8183,3.8194,3.819,3.8167,3.8155,3.8174,3.8177,3.8169,3.8162,3.8126,3.8125,3.8125,3.8124,0,3.8671,3.8613,3.8626,3.8565,3.8549,3.8569,3.8516,3.8522,3.8479,3.8481,3.8478,3.8412,3.84,3.8339,3.8313,3.8282,3.831,3.8285,3.8323,3.8315,3.8358,3.8355,3.8508,3.8524,3.8359,3.836,3.8362,0,3.875,3.8765,3.8705,3.87,3.8678,3.8672,3.8661,3.8592,3.8583,3.854,3.8551,3.8533,3.8516,3.85,3.8449,3.8428,3.8402,3.8457,3.8399,3.8416,3.8403,3.8403,3.8404,3.847,3.8472,3.8474,3.8475,0,3.8895,3.8865,3.8853,3.8829,3.8818,3.8796,3.877,3.877,3.8694,3.8687,3.8673,3.866,3.8632,3.8614,3.8584,3.8555,3.8503,3.8493,3.8501,3.8522,3.8543,3.8532,3.8358,3.8491,3.8489,3.8488,3.8487,3.8487,3.901,3.9019,3.8978,3.8965,3.8938,3.8914,3.8917,3.8874,3.8861,3.8834,3.8793,3.8785,3.8744,3.8697,3.8673,3.8664,3.8634,3.8646,3.8649,3.8653,3.8663,3.8543,3.8658,3.8657,3.8657,3.8657,3.8656,0,3.9152,3.9121,3.911,3.9075,3.9064,3.9014,3.8981,3.8976,3.8969,3.8936,3.8919,3.8902,3.8884,3.883,3.8806,3.8809,3.8784,3.8805,3.8805,3.8799,3.8691,3.8687,3.8826,3.8826,3.8826,3.8826,3.8826,3.8826,3.9225,3.9238,3.9203,3.92,3.9168,3.9159,3.9145,3.9122,3.9095,3.9079,3.9064,3.9028,3.8986,3.8957,3.8938,3.8922,3.8916,3.8946,3.8922,3.8823,3.8807,3.8791,3.8787,3.8945,3.8945,3.9031,3.9032,3.9032]}]]